Location: Krasnoyarskiy Pitomnik
(51.1333°N, 71.6167°E)
Time: 13:36:36
(UTC+00:00)

Cosmos 1707 - Pass Details

Date: 22 October 2021
Orbit: 513 x 529 km, 82.5° (Epoch: 26 November)

Event Time Altitude Azimuth Distance (km) Brightness Sun altitude
Exits shadow 23:05:54 48° 66° (ENE) 701 3.6 -26.3°
Drops below altitude 10° 23:09:12 10° 19° (NNE) 1,787 5.8 -25.8°
Sets 23:11:23 0° 15° (NNE) 2,680 6.7 -25.4°
